Home   Weather   Bahawalpur   Past weeks

Flag for Pakistan Past Weather in Bahawalpur, Pakistan — Yesterday and Last 2 Weeks

Now
95 °F

Haze.


Feels Like: 101 °F
Forecast: 81 / 103 °F
Wind: No wind

Location: Multan Airport

Current Time: Sep 29, 2016 at 8:17:25 PM

Latest Report: Sep 29, 2016 at 6:55 PM


Visibility: 2 mi

Pressure: 29.62 "Hg

Humidity: 44%

Dew Point: 70 °F

Location of BahawalpurLocation

Past Weather in Bahawalpur — Graph

°F

Bahawalpur Temperature Yesterday

Maximum temperature yesterday: 102 °F (at 1:59 PM)
Minimum temperature yesterday: 82 °F (at 6:00 AM)
Average temperature yesterday: 93 °F

High & Low Weather Summary for the Past Weeks

 TemperatureHumidityPressure
High102 °F (Sep 18, 1:55 PM)83% (Sep 24, 4:54 AM)29.77 "Hg (Sep 24, 4:54 AM)
Low75 °F (Sep 24, 2:51 AM)33% (Sep 19, 2:55 PM)29.53 "Hg (Sep 20, 3:55 PM)
Average91 °F57%29.64 "Hg
* Reported Sep 14 6:56 PM — Sep 29 6:55 PM, Bahawalpur, Weather by CustomWeather, © 2016

Note: Actual official high and low records may vary slightly from our data, if they occured in-between our weather recording intervals... More about our weather records

Advertising

Bahawalpur Weather History for the Previous 24 Hours

Scroll right to see more
 ConditionsComfort  
Time TempWeatherWind HumidityBarometerVisibility
6:55 PM
Thu, Sep 29
95 °FHaze.No wind44%29.62 "Hg2 mi
5:55 PM97 °FHaze.7 mph42%29.62 "Hg2 mi
5:00 PM99 °FHaze.5 mph39%29.62 "Hg2 mi
3:54 PM99 °FHaze.5 mph39%29.62 "Hg2 mi
2:58 PM100 °FHaze.5 mph35%29.62 "Hg2 mi
1:53 PM100 °FHaze.5 mph42%29.65 "Hg2 mi
12:50 PM99 °FHaze.5 mph47%29.65 "Hg2 mi
11:54 AM97 °FClear.5 mph50%29.68 "Hg2 mi
10:53 AM97 °FClear.5 mph50%29.71 "Hg2 mi
9:58 AM91 °FClear.No wind56%29.71 "Hg2 mi
9:03 AM88 °FClear.No wind62%29.68 "Hg1 mi
7:55 AM86 °FClear.No wind66%29.68 "Hg2 mi
6:56 AM84 °FClear.No wind74%29.62 "Hg2 mi
5:55 AM84 °FClear.No wind74%29.62 "Hg2 mi
4:53 AM84 °FClear.No wind70%29.62 "Hg2 mi
3:54 AM86 °FClear.No wind66%29.62 "Hg2 mi
2:51 AM86 °FClear.No wind66%29.62 "Hg2 mi
1:55 AM86 °FClear.No wind66%29.62 "Hg2 mi
11:55 PM
Wed, Sep 28
88 °FClear.No wind70%29.62 "Hg2 mi
10:53 PM88 °FClear.No wind70%29.62 "Hg2 mi
9:55 PM90 °FClear.No wind63%29.62 "Hg2 mi
8:52 PM91 °FClear.No wind56%29.62 "Hg2 mi
Weather by CustomWeather, © 2016

See weather overviewHow to use our weather pages